Location: La Tine
(46.4708°N, 7.0525°E)
Time: 11:17:39
(UTC+00:00)

Tsikada Rocket - Pass Details

Date: 18 September 2020
Orbit: 958 x 1009 km, 82.9° (Epoch: 24 October)

Event Time Altitude Azimuth Distance (km) Brightness Sun altitude
Rises 17:54:16 0° 351° (N) 3,655 7.2 -3.8°
Reaches altitude 10° 17:56:47 10° 351° (N) 2,702 6.6 -4.3°
Maximum altitude 18:02:58 89° 261° (W) 965 4.1 -5.3°
Drops below altitude 10° 18:09:07 10° 174° (S) 2,687 6.2 -6.4°
Sets 18:11:36 0° 174° (S) 3,633 6.8 -6.8°
